Regional Weather Roundup
Issued by NWS Northern Indiana

Home | Current Version | Previous Version | Graphics & Text | Print | Product List | Glossary On
Versions: 1 2 3 4 5 6 7 8 9 10 11 12 13 14 15 16 17 18 19 20 21 22 23 24 25 26 27 28 29 30 31 32 33 34 35 36 37 38 39 40 41 42 43 44 45 46 47 48 49 50
000
ASUS43 KIWX 181500
RWRIWX

KIWX WEATHER ROUNDUP
NATIONAL WEATHER SERVICE NORTHERN INDIANA
1000 AM EST WED JAN 18 2017

NOTE: "FAIR" INDICATES FEW OR NO CLOUDS BELOW 12,000 FEET WITH NO
SIGNIFICANT WEATHER AND/OR OBSTRUCTIONS TO VISIBILITY.

* THESE STATIONS ARE NOT UNDER NWS QUALITY CONTROL. THEY ALSO MAY NOT
  REPORT WEATHER SUCH AS PRECIPITATION OR FOG.

INZ001>027-181600-
NORTHERN INDIANA

CITY           SKY/WX    TMP DP  RH WIND       PRES   REMARKS
GARY*          CLOUDY    36  34  93 W12       30.16R
SOUTH BEND     FOG       33  33 100 W8        30.15R VSB 1   WCI  26
ELKHART*       CLOUDY    36  34  93 W8        30.15R FOG
GOSHEN         CLOUDY    34  32  92 W10       30.14R FOG     WCI  26
FORT WAYNE     DRIZZLE   35  33  92 W13       30.15R FOG     WCI  26
PERU/GRISSOM   CLOUDY    34  34 100 W10       30.15R FOG     WCI  26

$$
INZ028>050-181600-
CENTRAL INDIANA

CITY           SKY/WX    TMP DP  RH WIND       PRES   REMARKS
LAFAYETTE      CLOUDY    34  33  96 W8        30.18R WCI  27
KOKOMO*        CLOUDY    34  33  96 W10       30.18R FOG     WCI  26
MUNCIE*        CLOUDY    36  33  89 W9        30.17R
INDIANAPOLIS   CLOUDY    36  34  92 W12       30.20R

$$
MIZ043>046-050>051-056>058-064>065-071>073-077>080-181600-
SOUTHWEST LOWER MICHIGAN

CITY           SKY/WX    TMP DP  RH WIND       PRES   REMARKS
BATTLE CREEK   CLOUDY    36  36 100 W12       30.10R FOG
BENTON HARBOR  CLOUDY    36  34  92 W13       30.14R FOG
COLDWATER*     CLOUDY    35  35 100 W10       30.11R FOG     WCI  28
HILLSDALE*     CLOUDY    34  32  93 W13       30.08R FOG     WCI  25
HOLLAND        CLOUDY    37  36  96 W9        30.10S FOG
GRAND RAPIDS   CLOUDY    36  34  92 W9        30.08R FOG
KALAMAZOO      CLOUDY    37  34  89 W12       30.11R FOG
STURGIS*       CLOUDY    34  33  98 W9        30.12R FOG     WCI  27
THREE RIVERS*  CLOUDY    35  35  99 W9        30.12R FOG     WCI  28

$$
OHZ001>008-015>018-024>025-181600-
NORTHWEST OHIO

CITY           SKY/WX    TMP DP  RH WIND       PRES   REMARKS
DEFIANCE       CLOUDY    37  32  82 W9        30.14R
FINDLAY        CLOUDY    37  33  85 W15       30.12R FOG
TOLEDO EXPRESS CLOUDY    35  35 100 W14       30.10R WCI  26
TOLEDO METCALF CLOUDY    37  36  96 W13       30.12R
LIMA           CLOUDY    36  35  96 W16       30.14R FOG

$$
AND FOR LAKE MICHIGAN COASTAL AND OPEN LAKE BUOY OBSERVATIONS

STATION/POSITION TEMP    WIND        PRES    VSBY  WAVE
                 AIR SEA DIR/SP/G                  HT/PER
                 (F)     (DEG/KT/KT) (MB)    (MI)  (FT/S)
CALUMET HARBOR    34     230/  8/ 12 1020.1R
BURNS HARBOR      34     270/  8/  9 1021.3R

$$
&&




USA.gov is the U.S. government's official web portal to all federal, state and local government web resources and services.